sat.trackr.live / text

‹ back to catalog

CATCH-1

NORAD 60088 · 2024-116A

PAYLOAD ACTIVE UNKNOWN

§ Identity

Operator
Country
PRC
Launch date
2024-06-22
Launch site
XICLF
Launch vehicle
Mass (kg)
RCS (m²)

External: N2YO · Heavens-Above · Gunter

§ Orbital elements

Epoch: 2026-05-25T00:08:15.327744Z

Period
96.98 min
Inclination
28.9953°
Eccentricity
0.0004019
Mean motion
14.84834555 rev/d
Perigee alt
611.3 km
Apogee alt
616.9 km
Semi-major
6,992.2 km
B*
1.5920e-4
RAAN
257.8596°
Arg perigee
184.8220°
Mean anomaly
175.2336°
Rev number
10,421

§ Raw data

CATCH-11 60088U 24116A   26145.00573296  .00001511  00000+0  15920-3 0  99932 60088  28.9953 257.8596 0004019 184.8220 175.2336 14.84834555104213

JSON: /api/v1/satellites/60088 · /tle

For live sub-satellite position, see the globe view (requires WebGL).

§ Visibility from observer

Set your observer location to see the next 7 days of passes ≥ 10°. The values pass through the URL so the page stays shareable.

No JS? Fill the form by hand. The geolocation button needs JavaScript.